Time,TemperatureF,DewpointF,PressureIn,WindDirection,WindDirectionDegrees,WindSpeedMPH,WindSpeedGustMPH,Humidity,HourlyPrecipIn,Conditions,Clouds,dailyrainin,SolarRadiationWatts/m^2,SoftwareType,DateUTC
2013-02-15 00:00:00,19.0,15.0,-100.00,SSE,158,2.0,3.0,82,-99.99,,,0.00,0.000000,,2013-02-15 07:00:00,
2013-02-15 00:52:00,19.0,15.0,-100.00,SSE,158,2.0,3.0,82,-99.99,,,0.00,0.000000,,2013-02-15 07:52:00,
2013-02-15 01:00:00,18.0,14.0,-100.00,SSE,150,2.0,3.0,81,-99.99,,,0.00,0.000000,,2013-02-15 08:00:00,
2013-02-15 01:53:00,18.0,14.0,-100.00,SSE,150,2.0,3.0,81,-99.99,,,0.00,0.000000,,2013-02-15 08:53:00,
2013-02-15 02:00:00,22.0,15.0,-100.00,SE,126,1.0,3.0,77,-99.99,,,0.00,0.000000,,2013-02-15 09:00:00,
2013-02-15 02:52:00,22.0,15.0,-100.00,SE,126,1.0,3.0,77,-99.99,,,0.00,0.000000,,2013-02-15 09:52:00,
2013-02-15 03:00:00,21.0,14.0,-100.00,East,81,0.0,3.0,73,-99.99,,,0.00,0.000000,,2013-02-15 10:00:00,
2013-02-15 03:52:00,21.0,14.0,-100.00,East,81,0.0,3.0,73,-99.99,,,0.00,0.000000,,2013-02-15 10:52:00,
2013-02-15 04:00:00,21.0,17.0,-100.00,East,81,0.0,2.0,85,-99.99,,,0.00,0.000000,,2013-02-15 11:00:00,
2013-02-15 04:52:00,21.0,17.0,-100.00,East,81,0.0,2.0,85,-99.99,,,0.00,0.000000,,2013-02-15 11:52:00,
2013-02-15 05:00:00,21.0,20.0,-100.00,NNE,32,0.0,2.0,97,-99.99,,,0.00,0.000000,,2013-02-15 12:00:00,
2013-02-15 05:52:00,21.0,20.0,-100.00,NNE,32,0.0,2.0,97,-99.99,,,0.00,0.000000,,2013-02-15 12:52:00,
2013-02-15 06:00:00,20.0,19.0,-100.00,NNE,17,0.0,2.0,97,-99.99,,,0.00,0.000000,,2013-02-15 13:00:00,
2013-02-15 06:52:00,20.0,19.0,-100.00,NNE,17,0.0,2.0,97,-99.99,,,0.00,0.000000,,2013-02-15 13:52:00,
2013-02-15 07:00:00,20.0,19.0,-100.00,ENE,62,1.0,3.0,95,-99.99,,,0.00,0.000000,,2013-02-15 14:00:00,
2013-02-15 07:52:00,20.0,19.0,-100.00,ENE,62,1.0,3.0,95,-99.99,,,0.00,0.000000,,2013-02-15 14:52:00,
2013-02-15 08:00:00,20.0,19.0,-100.00,NNE,18,1.0,4.0,96,-99.99,,,0.00,7.000000,,2013-02-15 15:00:00,
2013-02-15 08:52:00,20.0,19.0,-100.00,NNE,18,1.0,4.0,96,-99.99,,,0.00,7.000000,,2013-02-15 15:52:00,
2013-02-15 09:00:00,21.0,20.0,-100.00,NNE,16,1.0,3.0,95,-99.99,,,0.00,34.200001,,2013-02-15 16:00:00,
2013-02-15 09:52:00,21.0,20.0,-100.00,NNE,16,1.0,3.0,95,-99.99,,,0.00,34.200001,,2013-02-15 16:52:00,
2013-02-15 10:00:00,22.0,21.0,-100.00,NNE,13,1.0,3.0,93,-99.99,,,0.00,168.199997,,2013-02-15 17:00:00,
2013-02-15 10:52:00,22.0,21.0,-100.00,NNE,13,1.0,3.0,93,-99.99,,,0.00,168.199997,,2013-02-15 17:52:00,
2013-02-15 11:00:00,26.0,23.0,-100.00,NNW,347,1.0,5.0,87,-99.99,,,0.00,239.600006,,2013-02-15 18:00:00,
2013-02-15 11:53:00,26.0,23.0,-100.00,NNW,347,1.0,5.0,87,-99.99,,,0.00,239.600006,,2013-02-15 18:53:00,
2013-02-15 12:00:00,28.0,15.0,-100.00,NNW,334,2.0,7.0,58,-99.99,,,0.00,367.200012,,2013-02-15 19:00:00,
2013-02-15 12:52:00,28.0,15.0,-100.00,NNW,334,2.0,7.0,58,-99.99,,,0.00,367.200012,,2013-02-15 19:52:00,
2013-02-15 13:00:00,29.0,12.0,-100.00,NNW,339,3.0,7.0,47,-99.99,,,0.00,636.500000,,2013-02-15 20:00:00,
2013-02-15 13:52:00,29.0,12.0,-100.00,NNW,339,3.0,7.0,47,-99.99,,,0.00,636.500000,,2013-02-15 20:52:00,
2013-02-15 14:00:00,30.0,8.0,-100.00,North,353,2.0,6.0,40,-99.99,,,0.00,437.100006,,2013-02-15 21:00:00,
2013-02-15 14:52:00,30.0,8.0,-100.00,North,353,2.0,6.0,40,-99.99,,,0.00,437.100006,,2013-02-15 21:52:00,
2013-02-15 15:00:00,30.0,4.0,-100.00,NNW,327,3.0,8.0,33,-99.99,,,-99.99,171.600006,,2013-02-15 22:00:00,
2013-02-15 15:52:00,30.0,4.0,-100.00,NNW,327,3.0,8.0,33,-99.99,,,-99.99,171.600006,,2013-02-15 22:52:00,
2013-02-15 16:00:00,28.0,2.0,-100.00,NW,315,2.0,7.0,33,-99.99,,,0.00,54.599998,,2013-02-15 23:00:00,
2013-02-15 16:52:00,28.0,2.0,-100.00,NW,315,2.0,7.0,33,-99.99,,,0.00,54.599998,,2013-02-15 23:52:00,
2013-02-15 17:00:00,27.0,4.0,-100.00,NW,312,2.0,6.0,37,-99.99,,,0.00,32.400002,,2013-02-16 00:00:00,
2013-02-15 17:52:00,27.0,4.0,-100.00,NW,312,2.0,6.0,37,-99.99,,,0.00,32.400002,,2013-02-16 00:52:00,
2013-02-15 18:00:00,24.0,2.0,-100.00,NW,312,1.0,3.0,38,-99.99,,,0.00,9.500000,,2013-02-16 01:00:00,
2013-02-15 18:52:00,24.0,2.0,-100.00,NW,312,1.0,3.0,38,-99.99,,,0.00,9.500000,,2013-02-16 01:52:00,
2013-02-15 19:00:00,20.0,3.0,-100.00,NW,312,0.0,3.0,46,-99.99,,,0.00,0.000000,,2013-02-16 02:00:00,
2013-02-15 19:52:00,20.0,3.0,-100.00,NW,312,0.0,3.0,46,-99.99,,,0.00,0.000000,,2013-02-16 02:52:00,
2013-02-15 20:00:00,20.0,2.0,-100.00,West,260,0.0,0.0,45,-99.99,,,0.00,0.000000,,2013-02-16 03:00:00,
2013-02-15 20:52:00,20.0,2.0,-100.00,West,260,0.0,0.0,45,-99.99,,,0.00,0.000000,,2013-02-16 03:52:00,
2013-02-15 21:00:00,19.0,3.0,-100.00,SW,220,0.0,0.0,48,-99.99,,,0.00,0.000000,,2013-02-16 04:00:00,
2013-02-15 21:52:00,19.0,3.0,-100.00,SW,220,0.0,0.0,48,-99.99,,,0.00,0.000000,,2013-02-16 04:52:00,
2013-02-15 22:00:00,19.0,-99.9,-100.00,North,-999,-999.0,-999.0,-999,-99.99,,,0.00,,,2013-02-16 05:00:00,
2013-02-15 22:53:00,19.0,-99.9,-100.00,North,-999,-999.0,-999.0,-999,-99.99,,,0.00,,,2013-02-16 05:53:00,
2013-02-15 23:00:00,19.0,5.0,-100.00,SE,143,0.0,0.0,52,-99.99,,,-99.99,0.000000,,2013-02-16 06:00:00,
2013-02-15 23:52:00,19.0,5.0,-100.00,SE,143,0.0,0.0,52,-99.99,,,-99.99,0.000000,,2013-02-16 06:52:00,